KJFKGOOY

Guest
Details From KJFK - John F Kennedy Intl
To GOOY - Dakar Leopold Sedar Senghor Intl
Flight Number -
Tags decoded
Created
Modified
Stats Distance 3,346 nm / 6,198 km
Max Altitude 0 ft / 0 m
Waypoints 11
Social Downloads 2
Likes 0
Share VATSIM

Download

Looking for another format? Having issues loading an existing format? Contact us
Advertisement - Login to hide

Notes

Requested: KJFK SHIPP LINND MARIG OVAPI 3700N06000W 3500N05000W 3100N04000W 2500N03000W BAMUX ILGAS YF GOOY Unmatched points: BAMUX ILGAS

Route

KJFK SHIPP LINND MARIG OVAPI 3700N06000W 3500N05000W 3100N04000W 2500N03000W YF GOOY

ID Type Via Altitude Latitude Longitude Leg Dist Tot Dist Heading (true) Name
O KJFK APT - 0 ft / 0 m 40.63990˚ -73.77666˚ - 0 nm - John F Kennedy Intl
SHIPP FIX - 0 ft / 0 m 40.32943˚ -73.24727˚ 30 nm 30 nm 127° / 128° -
LINND FIX - 0 ft / 0 m 39.40976˚ -71.71049˚ 89 nm 120 nm 127° / 128° -
MARIG FIX - 0 ft / 0 m 38.32844˚ -70.05952˚ 100 nm 221 nm 130° / 131° -
OVAPI FIX - 0 ft / 0 m 37.45459˚ -66.80952˚ 162 nm 383 nm 108° / 110° -
3700N06000W LATLON - 0 ft / 0 m 37.00000˚ -60.00000˚ 326 nm 710 nm 93° / 97° -
3500N05000W LATLON - 0 ft / 0 m 35.00000˚ -50.00000˚ 500 nm 1210 nm 101° / 107° -
3100N04000W LATLON - 0 ft / 0 m 31.00000˚ -40.00000˚ 557 nm 1768 nm 113° / 118° -
2500N03000W LATLON - 0 ft / 0 m 25.00000˚ -30.00000˚ 640 nm 2409 nm 122° / 126° -
YF LOC-ILS - 0 ft / 0 m 14.75859˚ -17.48129˚ 936 nm 3345 nm 129° / 133° ILS-cat-I
O GOOY APT - 0 ft / 0 m 14.73971˚ -17.49023˚ 1 nm 3346 nm 205° / 205° Dakar Leopold Sedar Senghor Intl

Altitude Profile

Advertisement - Login to hide

Weather


0- 5 10 15 20 25 30 35+ Temperature / ° C

Clouds and Precipitation
Forecast for 2018-05-23 18:00 UTC. Updated 6 hours ago

Ground ~20,000 ft ~40,000 ft Winds

KJFK

Details ICAO KJFK (JFK)
Name John F Kennedy Intl
Region United States
Timezone America/New_York (UTC-4.0)
Stats Elevation 13 ft / 4 m (AMSL)
Location 40.639904° -73.776661°
Runways 4
Magnetic Variation 12.983° W

METAR

KJFK 232251Z 30010KT 10SM FEW070 FEW250 27/12 A2994 RMK AO2 SLP138 T02670117

Decode

TAF

TAF AMD KJFK 232100Z 2321/2424 36012G17KT P6SM SCT250 FM232300 31010KT P6SM FEW250 FM240300 32007KT P6SM SKC FM241200 35009KT P6SM SKC FM241700 VRB05KT P6SM SKC FM241900 18008KT P6SM SKC

Decode

Departure Runways

ID Width Length Bearing (true) Bearing (mag) Surface Threshold Offset Overrun Length
04L 151 ft / 46 m 11,358 ft / 3,462 m 30.66° 43.64° Asphalt 0 ft / 0 m 200 ft / 61 m
04R 200 ft / 61 m 8,405 ft / 2,562 m 30.67° 43.65° Asphalt 0 ft / 0 m 0 ft / 0 m
13L 151 ft / 46 m 9,986 ft / 3,044 m 120.85° 133.83° Asphalt 988 ft / 301 m 400 ft / 122 m
13R 151 ft / 46 m 14,553 ft / 4,436 m 120.83° 133.81° Asphalt 2,605 ft / 794 m 400 ft / 122 m
22L 200 ft / 61 m 8,405 ft / 2,562 m 210.68° 223.66° Asphalt 0 ft / 0 m 545 ft / 166 m
22R 151 ft / 46 m 11,358 ft / 3,462 m 210.67° 223.65° Asphalt 2,697 ft / 822 m 604 ft / 184 m
31L 151 ft / 46 m 14,553 ft / 4,436 m 300.86° 313.84° Asphalt 3,317 ft / 1,011 m 600 ft / 183 m
31R 151 ft / 46 m 9,986 ft / 3,044 m 300.87° 313.85° Asphalt 1,030 ft / 314 m 246 ft / 75 m

GOOY

Details ICAO GOOY (DKR)
Name Dakar Leopold Sedar Senghor Intl
Region Senegal
Timezone Africa/Dakar (UTC+0.0)
Stats Elevation 85 ft / 26 m (AMSL)
Location 14.739711° -17.490226°
Runways 2
Magnetic Variation 7.297° W

METAR

GOOY 232300Z 36008KT 8000 NSC 21/19 Q1013 NOSIG

Decode

TAF

TAF GOOY 231730Z 2318/2424 35014KT CAVOK= TAF GBYD 231730Z 2318/2424 27009KT CAVOK

Decode

Destination Runways

ID Width Length Bearing (true) Bearing (mag) Surface Threshold Offset Overrun Length
03 98 ft / 30 m 4,921 ft / 1,500 m 22.31° 29.61° Asphalt 0 ft / 0 m 98 ft / 30 m
18 148 ft / 45 m 11,511 ft / 3,509 m 172.57° 179.87° Asphalt 525 ft / 160 m 197 ft / 60 m
21 98 ft / 30 m 4,921 ft / 1,500 m 202.31° 209.61° Asphalt 0 ft / 0 m 1,590 ft / 485 m
36 148 ft / 45 m 11,511 ft / 3,509 m 352.57° 359.87° Asphalt 0 ft / 0 m 197 ft / 60 m

Approach Navaids

Runway Type Ident Frequency Range Bearing (true) Bearing (mag) Slope Elevation
36 Localiser YF 110.30 MHz 18 nm / 33 km 352.33° 359.62° - 65 ft / 20 m (AMSL)
36 Glidescope YF 110.30 MHz 10 nm / 19 km 352.57° 359.87° 3.01° 73 ft / 22 m (AMSL)
36 DME YF 110.30 MHz 18 nm / 33 km - - - 73 ft / 22 m (AMSL)

Popular Alternatives